Home   Weather   St. John's   Past weeks

Flag for Canada Past Weather in St. John's, Newfoundland and Labrador, Canada — Yesterday and Last 2 Weeks

Now
28 °F

Passing clouds.


Feels Like: 15 °F
Forecast: N/A
Wind: 20 mph from West

Location: St. John's

Current Time: Dec 10, 2016 at 5:16:36 pm

Latest Report: Dec 10, 2016 at 4:30 pm


Visibility: 15 mi

Pressure: 29.61 "Hg

Humidity: 64%

Dew Point: 18 °F

Location of St. John'sLocation

Past Weather in St. John's — Graph

°F

St. John's Temperature Yesterday

Maximum temperature yesterday: 36 °F (at 2:30 am)
Minimum temperature yesterday: 30 °F (at 9:30 pm)
Average temperature yesterday: 33 °F

High & Low Weather Summary for the Past Weeks

 TemperatureHumidityPressure
High48 °F (Nov 27, 11:30 pm)100% (Nov 27, 4:30 pm)30.32 "Hg (Nov 27, 4:30 pm)
Low19 °F (Dec 7, 7:30 am)54% (Dec 5, 2:30 pm)28.97 "Hg (Dec 9, 8:30 am)
Average31 °F83%29.73 "Hg
* Reported Nov 25 3:30 pm — Dec 10 3:30 pm, St. John's, Weather by CustomWeather, © 2016

Note: Actual official high and low records may vary slightly from our data, if they occured in-between our weather recording intervals... More about our weather records

Advertising

St. John's Weather History for the Previous 24 Hours

Scroll right to see more
 ConditionsComfort  
Time TempWeatherWind HumidityBarometerVisibility
3:30 pm
Sat, Dec 10
28 °FScattered clouds.20 mph69%29.59 "Hg15 mi
2:30 pm28 °FScattered clouds.21 mph69%29.57 "Hg15 mi
1:30 pm30 °FScattered clouds.28 mph59%29.57 "Hg15 mi
12:30 pm28 °FScattered clouds.23 mph64%29.56 "Hg15 mi
11:30 am28 °FPartly sunny.22 mph69%29.56 "Hg15 mi
10:30 am28 °FPartly sunny.25 mph69%29.55 "Hg15 mi
9:30 am27 °FPartly sunny.26 mph74%29.54 "Hg15 mi
8:30 am25 °FPassing clouds.25 mph80%29.51 "Hg15 mi
7:30 am25 °FScattered clouds.23 mph74%29.49 "Hg15 mi
6:30 am25 °FPassing clouds.24 mph80%29.46 "Hg15 mi
5:30 am25 °FPassing clouds.22 mph86%29.42 "Hg15 mi
4:30 am27 °FPassing clouds.25 mph86%29.39 "Hg15 mi
3:30 am30 °FPassing clouds.22 mph86%29.37 "Hg15 mi
2:30 am28 °FPassing clouds.15 mph93%29.35 "Hg15 mi
1:30 am28 °FPassing clouds.16 mph93%29.33 "Hg15 mi
12:30 am30 °FPassing clouds.18 mph86%29.32 "Hg15 mi
11:30 pm
Fri, Dec 9
30 °FPassing clouds.16 mph86%29.33 "Hg15 mi
10:30 pm30 °FPassing clouds.15 mph86%29.33 "Hg15 mi
9:30 pm30 °FPassing clouds.17 mph93%29.33 "Hg15 mi
8:30 pm32 °FPassing clouds.16 mph87%29.32 "Hg15 mi
7:30 pm32 °FPassing clouds.16 mph87%29.32 "Hg15 mi
6:30 pm32 °FPassing clouds.22 mph87%29.29 "Hg15 mi
5:30 pm32 °FPassing clouds.26 mph87%29.27 "Hg15 mi
Weather by CustomWeather, © 2016

See weather overviewHow to use our weather pages